Powrót do katalogu

STARLINK-32412

AktywnyŁącznośćVLEO
NORAD 61680·PAYLOAD·🇺🇸 United States

Wystrzelony Oct 26, 2024 z Cape Canaveral Space Force Station

Loading…

Następne Przeloty (najbliższe 24 godziny)

TLE

ŚwieżeSource: CelesTrak SupGP

Epoka: Sep 14, 2026, 22:55 UTC

1 61680C 24193V   26257.95534722  .00051425  00000+0  16539-2 0  2578
2 61680  53.1577 290.7101 0001100  90.6874 160.2178 15.31673058    12

Śledź STARLINK-32412 w czasie rzeczywistym z AllMySat

Download on the App Store